Presure
174 173 145 181 177 155 136 130 127 173 170 139 171 151 175 183 183 181 194 183 184 188 191 197 202 194 201 199 183 193 184 179
181 134 131 174 177 162 134 144 169 179 174 179 186 183 185 160 170 188 191 191 194 189 193 188 179 185 204 196 224 203 173 190
210 176 179 177 171 171 175 175 163 178 179 183 166 166 186 176 182 173 174 189 183 197 182 196 170 172 199 168 201 168 204 215
204 202 192 187 186 166 181 183 169 178 163 172 182 181 183 177 179 170 179 188 190 189 191 195 180 208 199 199 212 217 222 225
198 200 197 189 177 173 177 170 180 176 181 186 191 181 183 190 188 192 194 194 194 200 202 204 204 212 216 220 206 220 242 282
190 198 191 190 188 183 183 183 186 183 174 184 186 189 185 186 192 192 195 200 201 197 207 205 216 215 238 227 240 293 300 293
195 199 193 184 185 184 186 184 185 188 180 182 187 181 179 190 187 195 198 202 217 217 222 234 215 239 241 249 273 260 290 305
194 194 196 189 188 182 184 187 191 180 194 205 202 197 198 213 217 233 224 219 221 232 231 231 240 228 251 258 303 287 305 306
209 194 189 194 190 185 188 185 194 174 189 211 185 189 206 206 246 218 219 216 251 253 254 249 279 252 232 297 284 306 308 294
215 206 201 202 203 202 191 199 202 200 196 202 198 204 210 240 222 229 268 242 245 226 247 263 263 262 293 288 306 304 290 284
204 185 201 203 199 189 198 187 210 209 199 212 200 224 224 227 228 244 263 271 255 257 248 249 281 290 287 304 299 288 285 293
201 208 197 201 198 189 206 203 204 211 220 234 216 229 243 257 262 203 260 259 252 248 266 274 289 284 296 297 288 278 292 281
211 209 208 208 200 202 208 214 217 249 199 219 219 217 232 279 267 256 247 237 252 262 276 284 282 293 295 288 277 279 282 267
251 240 243 219 215 225 229 193 205 220 222 226 238 243 234 271 254 248 255 265 265 289 281 279 289 291 284 280 271 302 273 264
224 202 224 233 210 208 220 219 223 218 226 231 239 265 265 256 256 256 255 283 272 277 284 284 287 288 280 269 284 287 267 254
228 218 223 229 223 221 212 219 232 234 251 244 275 267 265 253 254 253 269 286 285 282 281 289 284 275 269 270 289 286 264 255
227 229 232 234 252 227 233 230 237 266 275 271 266 255 251 261 267 264 277 276 280 278 276 279 278 273 267 273 290 279 264 255
238 262 235 253 254 262 257 254 272 273 264 259 258 252 266 260 256 273 288 282 274 273 274 269 273 265 263 275 282 273 265 255
298 289 287 293 281 284 265 264 256 255 255 262 261 258 249 254 266 272 278 266 267 273 280 276 265 264 268 277 281 269 261 255
Wind_Speed
72 74 59 71 73 69 70 58 51 73 76 71 80 69 73 82 80 78 86 83 85 85 87 92 94 90 93 94 85 89 83 90
71 73 68 80 80 79 71 75 78 84 82 85 90 89 90 74 77 92 92 94 95 89 93 90 85 86 101 95 105 97 90 99
67 76 82 84 85 87 88 89 82 89 91 93 82 80 92 90 94 86 84 98 90 105 90 103 86 82 103 90 105 92 112 120
67 75 81 86 88 82 90 91 87 91 86 93 97 97 98 93 94 86 94 101 102 100 99 106 97 116 107 108 118 123 124 125
75 74 79 88 90 92 95 94 97 99 100 102 100 103 105 106 107 108 111 111 113 116 116 117 116 119 121 125 108 123 125 104
77 76 77 79 85 93 94 97 100 103 98 107 109 106 110 111 111 112 115 117 119 117 121 118 126 123 123 125 124 100 90 88
80 79 80 88 90 93 95 98 101 103 101 106 110 104 102 114 111 117 116 115 124 123 124 118 119 120 117 113 104 95 84 75
85 83 85 91 91 96 98 99 102 96 103 107 111 114 118 116 117 118 118 115 115 116 113 114 115 109 111 97 83 83 69 64
83 86 90 92 94 101 107 103 109 92 104 106 104 108 112 113 119 112 110 111 118 115 117 114 98 111 95 77 80 64 59 58
88 89 91 92 90 102 104 110 108 106 102 107 105 113 118 119 118 119 113 112 101 101 109 100 99 98 76 73 61 55 54 53
90 88 88 93 95 98 100 97 109 111 107 115 105 124 114 117 113 101 104 93 97 95 95 95 89 72 69 58 52 50 47 40
99 101 94 95 96 98 106 107 109 114 116 104 110 117 121 121 107 69 90 90 94 94 92 89 70 67 58 52 47 47 37 29
101 102 106 104 101 105 109 114 117 106 104 108 108 101 115 88 85 87 89 91 92 88 88 68 64 56 53 46 44 41 26 30
94 92 99 108 113 116 112 96 103 105 112 118 124 119 99 81 86 88 88 86 86 73 66 62 56 53 49 42 42 27 26 27
99 96 96 99 95 97 107 106 107 107 115 115 113 93 82 84 83 84 83 71 72 66 59 57 52 48 45 41 35 26 27 30
106 103 104 106 104 104 102 108 116 114 114 111 80 76 75 77 81 83 73 66 61 58 56 52 48 45 45 39 33 26 31 30
107 108 111 108 106 108 111 113 109 89 78 76 73 76 78 78 69 72 69 59 55 53 52 50 46 44 44 39 32 30 33 32
111 108 109 101 102 97 100 96 76 72 75 74 73 75 69 68 69 75 64 54 53 53 51 48 45 45 45 39 33 31 34 34
91 89 86 73 72 58 67 67 73 73 76 71 68 67 68 71 77 71 55 57 58 55 51 47 48 48 46 40 35 33 35 35
Wind_Direction
282 281 290 283 284 285 288 286 286 289 288 290 289 290 285 287 284 283 286 282 281 281 282 284 286 283 284 285 280 282 278 277
281 284 288 289 284 286 290 289 287 285 289 287 285 285 284 278 280 287 288 287 287 284 285 283 279 282 288 288 287 290 271 285
277 273 276 278 282 284 282 282 283 281 281 281 282 283 284 284 285 284 286 287 286 288 284 288 281 279 287 278 287 278 289 291
289 275 271 271 272 278 275 276 280 280 285 284 280 280 281 285 284 286 288 286 286 287 289 290 288 291 289 290 294 294 294 294
284 278 275 270 273 277 275 281 276 280 278 277 276 281 283 281 282 283 284 286 288 288 290 291 293 292 294 295 293 296 296 296
280 274 273 273 271 270 270 272 272 273 284 278 279 279 281 283 284 285 286 286 286 291 289 292 292 294 295 295 296 300 299 297
279 274 268 269 270 271 273 273 273 274 282 282 280 284 289 284 288 286 288 290 287 288 290 293 294 296 298 298 300 297 300 299
279 274 270 269 271 273 276 274 273 281 279 281 278 280 281 285 286 291 288 290 290 293 294 295 297 296 300 299 301 301 298 297
271 266 270 266 269 272 274 278 276 287 284 286 284 285 286 287 294 291 291 292 296 294 294 295 295 298 297 301 300 299 298 297
268 264 267 268 269 266 272 272 275 281 285 290 289 291 293 295 293 295 295 294 295 296 296 296 297 298 299 300 299 299 297 297
279 277 273 272 272 277 277 282 282 282 286 286 289 288 291 293 295 295 294 294 294 294 298 299 301 299 299 298 299 298 298 301
282 280 280 281 279 278 280 280 282 282 285 288 288 292 296 297 298 290 293 292 294 297 297 299 297 299 299 299 298 295 298 298
275 275 276 277 279 280 281 281 281 286 285 287 291 295 298 294 292 290 293 295 294 296 298 296 298 298 299 299 295 294 288 287
285 275 277 272 275 278 279 283 282 287 290 292 292 293 294 289 291 293 294 296 296 296 294 297 298 299 297 296 292 285 274 278
283 276 278 281 277 279 283 283 285 287 288 290 292 292 290 291 291 293 297 295 294 295 296 297 297 297 296 293 295 273 263 272
281 278 281 283 278 279 281 285 286 286 287 290 288 290 289 291 293 294 294 299 295 294 295 297 296 294 291 293 289 258 257 264
280 279 280 281 280 279 281 282 284 285 283 285 289 289 291 293 294 300 302 298 293 293 295 297 294 289 289 294 282 256 255 260
275 277 276 279 280 279 280 280 278 280 284 287 288 289 292 296 299 301 298 290 292 292 294 292 289 286 287 291 277 257 255 256
277 277 277 275 275 269 273 273 280 281 280 284 289 293 294 297 297 299 290 291 291 292 293 289 286 285 286 283 272 257 254 255